User: anonymous   Login
Location: Allaines
(49.9632°N, 2.9458°E)
Time: 12:08:24
(UTC+00:00)
Language:

COSMOS 2455 - Orbit

View from above orbital plane
View from above orbital plane
View from above satellite
View from above satellite

Ground track
Ground track

The orbit data is extracted from the following two-line orbital elements,

1 36095U 09063A   20191.10812222 -.00000045  00000-0  21658-4 0  9998
2 36095  67.1482 126.5000 0008358 286.4178  73.5988 13.96768857542378
Epoch (UTC): 09 July 2020 02:35:41
Eccentricity: 0.0008358
inclination: 67.1482°
perigee height: 899 km
apogee height: 911 km
right ascension of ascending node: 126.5000°
argument of perigee: 286.4178°
revolutions per day: 13.96768857
mean anomaly at epoch: 73.5988°
orbit number at epoch: 54237

The dashed part of the orbit path shows where the satellite is in the earth's shadow,  

DLR